Weather History for Carrollton, GA

Change the Weather History Date:

Monday, October 28, 2013

  Actual Average Record
Temperature  
Mean Temperature 58 °F -  
Max Temperature 64 °F 71 °F 82 °F (1991)
Min Temperature 51 °F 42 °F 27 °F (1957)
Degree Days  
Heating Degree Days 8    
Growing Degree Days 8 (Base 50)    
Moisture  
Dew Point 54 °F    
Average Humidity 91    
Maximum Humidity 100    
Minimum Humidity 72    
Precipitation  
Precipitation 0.00 in - - ()
Sea Level Pressure  
Sea Level Pressure 30.23 in    
Wind  
Wind Speed 1 mph (SSE)    
Max Wind Speed 6 mph    
Max Gust Speed -    
Visibility 8 miles    
Events Fog , Rain    
Averages and records for this station are not official NWS values.
T = Trace of Precipitation, MM = Missing Value Source: NWS Daily Summary

Daily Weather History Graph

Daily Weather History Graph

Search for Another Location

Airport:

Trip Planner

Search our weather history database for the weather conditions in past years. The results will help you decide how hot, cold, wet, or windy it might be!

Date:

Astronomy

Oct. 28, 2013 Rise Set
Actual Time 7:56 AM EDT 6:51 PM EDT
Civil Twilight 7:30 AM EDT 7:17 PM EDT
Nautical Twilight 7:01 AM EDT 7:46 PM EDT
Astronomical Twilight 6:32 AM EDT 8:15 PM EDT
Moon 2:05 AM EDT (10/28) 3:18 PM EDT (10/28)
Length of Visible Light 11h 46m
Length of Day
10h 55m
Waning Crescent, 34% of the Moon is Illuminated
Oct 28
Waning Crescent
Nov 3
New
Nov 10
First Quarter
Nov 17
Full
Nov 25
Last Quarter

Hourly Weather History & Observations

Time (EDT) Temp. Dew Point Humidity Pressure Visibility Wind Dir Wind Speed Gust Speed Precip Events Conditions
12:15 AM 55.4 °F 53.6 °F 94% 30.15 in 10.0 mi North 3.5 mph - N/A   Overcast
12:35 AM 55.4 °F 55.4 °F 100% 30.15 in 10.0 mi Calm Calm - N/A   Overcast
12:55 AM 55.4 °F 55.4 °F 100% 30.15 in 10.0 mi Calm Calm - N/A Rain Light Rain
1:15 AM 55.4 °F 53.6 °F 94% 30.16 in 7.0 mi Calm Calm - N/A   Mostly Cloudy
1:35 AM 55.4 °F 53.6 °F 94% 30.15 in 10.0 mi Calm Calm - N/A   Mostly Cloudy
1:55 AM 55.4 °F 53.6 °F 94% 30.15 in 10.0 mi Calm Calm - N/A   Overcast
2:15 AM 53.6 °F 53.6 °F 100% 30.16 in 7.0 mi Calm Calm - N/A   Overcast
2:55 AM 53.6 °F 53.6 °F 100% 30.16 in 0.8 mi Calm Calm - N/A   Mostly Cloudy
3:15 AM 51.8 °F 51.8 °F 100% 30.16 in 2.0 mi Calm Calm - N/A   Clear
3:35 AM 51.8 °F 51.8 °F 100% 30.16 in 0.5 mi Calm Calm - N/A Fog Fog
3:55 AM 51.8 °F 51.8 °F 100% 30.16 in 0.8 mi Calm Calm - N/A   Mostly Cloudy
4:15 AM 51.8 °F 51.8 °F 100% 30.16 in 3.0 mi Calm Calm - N/A   Mostly Cloudy
4:35 AM 51.8 °F 51.8 °F 100% 30.16 in 7.0 mi Calm Calm - N/A   Mostly Cloudy
4:55 AM 51.8 °F 51.8 °F 100% 30.16 in 7.0 mi Calm Calm - N/A   Overcast
5:15 AM 51.8 °F 51.8 °F 100% 30.17 in 5.0 mi Calm Calm - N/A   Overcast
5:35 AM 51.8 °F 51.8 °F 100% 30.18 in 5.0 mi Calm Calm - N/A   Overcast
5:55 AM 51.8 °F 51.8 °F 100% 30.19 in 7.0 mi Calm Calm - N/A Rain Light Rain
6:15 AM 51.8 °F 51.8 °F 100% 30.19 in 5.0 mi Calm Calm - N/A Rain Light Rain
6:35 AM 51.8 °F 51.8 °F 100% 30.20 in 5.0 mi Calm Calm - N/A Rain Rain
6:55 AM 51.8 °F 51.8 °F 100% 30.20 in 4.0 mi Calm Calm - N/A Rain Light Rain
7:15 AM 53.6 °F 53.6 °F 100% 30.20 in 5.0 mi Calm Calm - N/A Rain Light Rain
7:35 AM 53.6 °F 51.8 °F 94% 30.21 in 3.0 mi Calm Calm - N/A Rain Light Rain
7:55 AM 53.6 °F 53.6 °F 100% 30.22 in 4.0 mi Calm Calm - N/A   Overcast
8:15 AM 53.6 °F 53.6 °F 100% 30.23 in 2.0 mi Calm Calm - N/A   Overcast
8:35 AM 53.6 °F 53.6 °F 100% 30.23 in 3.0 mi Calm Calm - N/A   Overcast
8:55 AM 53.6 °F 53.6 °F 100% 30.23 in 4.0 mi Calm Calm - N/A   Overcast
9:15 AM 53.6 °F 53.6 °F 100% 30.25 in 4.0 mi Calm Calm - N/A   Overcast
9:35 AM 53.6 °F 53.6 °F 100% 30.25 in 4.0 mi Calm Calm - N/A Rain Light Rain
9:55 AM 55.4 °F 55.4 °F 100% 30.26 in 7.0 mi Calm Calm - N/A   Overcast
10:15 AM 55.4 °F 55.4 °F 100% 30.26 in 10.0 mi Calm Calm - N/A   Overcast
10:35 AM 57.2 °F 55.4 °F 94% 30.26 in 10.0 mi Calm Calm - N/A Rain Light Rain
10:55 AM 59.0 °F 55.4 °F 88% 30.27 in 10.0 mi Calm Calm - N/A   Overcast
11:15 AM 59.0 °F 55.4 °F 88% 30.27 in 10.0 mi Calm Calm - N/A   Overcast
11:35 AM 59.0 °F 55.4 °F 88% 30.28 in 10.0 mi Calm Calm - N/A   Overcast
11:55 AM 59.0 °F 55.4 °F 88% 30.29 in 10.0 mi Calm Calm - N/A Rain Light Rain
12:15 PM 59.0 °F 55.4 °F 88% 30.28 in 10.0 mi Calm Calm - N/A   Light Drizzle
12:35 PM 60.8 °F 55.4 °F 82% 30.28 in 10.0 mi Calm Calm - N/A   Overcast
12:55 PM 59.0 °F 55.4 °F 88% 30.28 in 7.0 mi Calm Calm - N/A   Heavy Drizzle
1:15 PM 60.8 °F 55.4 °F 82% 30.28 in 10.0 mi Calm Calm - N/A   Overcast
1:35 PM 59.0 °F 55.4 °F 88% 30.27 in 10.0 mi Calm Calm - N/A   Overcast
1:55 PM 59.0 °F 55.4 °F 88% 30.26 in 10.0 mi Calm Calm - N/A   Overcast
2:15 PM 60.8 °F 57.2 °F 88% 30.25 in 10.0 mi Calm Calm - N/A   Overcast
2:35 PM 62.6 °F 55.4 °F 77% 30.24 in 10.0 mi Calm Calm - N/A   Overcast
2:55 PM 62.6 °F 55.4 °F 77% 30.23 in 10.0 mi Calm Calm - N/A   Overcast
3:15 PM 62.6 °F 55.4 °F 77% 30.23 in 10.0 mi SSE 4.6 mph - N/A   Overcast
3:35 PM 62.6 °F 53.6 °F 72% 30.22 in 10.0 mi SSE 4.6 mph - N/A   Overcast
3:55 PM 62.6 °F 55.4 °F 77% 30.22 in 10.0 mi SSE 4.6 mph - N/A   Mostly Cloudy
4:15 PM 64.4 °F 55.4 °F 73% 30.22 in 10.0 mi Calm Calm - N/A   Mostly Cloudy
4:35 PM 62.6 °F 53.6 °F 72% 30.22 in 10.0 mi SSE 5.8 mph - N/A   Mostly Cloudy
4:55 PM 64.4 °F 55.4 °F 73% 30.22 in 10.0 mi South 4.6 mph - N/A   Mostly Cloudy
5:15 PM 62.6 °F 55.4 °F 77% 30.23 in 10.0 mi SSE 3.5 mph - N/A   Scattered Clouds
5:35 PM 64.4 °F 55.4 °F 73% 30.23 in 10.0 mi Calm Calm - N/A   Overcast
5:55 PM 62.6 °F 55.4 °F 77% 30.24 in 10.0 mi SE 3.5 mph - N/A   Scattered Clouds
6:15 PM 62.6 °F 55.4 °F 77% 30.24 in 10.0 mi Calm Calm - N/A   Overcast
6:35 PM 62.6 °F 55.4 °F 77% 30.23 in 10.0 mi Calm Calm - N/A   Overcast
6:55 PM 60.8 °F 55.4 °F 82% 30.24 in 10.0 mi Calm Calm - N/A   Overcast
7:15 PM 60.8 °F 55.4 °F 82% 30.24 in 10.0 mi Calm Calm - N/A   Overcast
7:35 PM 60.8 °F 57.2 °F 88% 30.25 in 10.0 mi Calm Calm - N/A   Overcast
7:55 PM 59.0 °F 55.4 °F 88% 30.26 in 10.0 mi Calm Calm - N/A   Overcast
8:15 PM 59.0 °F 57.2 °F 94% 30.26 in 10.0 mi Calm Calm - N/A   Overcast
8:35 PM 59.0 °F 57.2 °F 94% 30.27 in 10.0 mi Calm Calm - N/A   Overcast
8:55 PM 59.0 °F 57.2 °F 94% 30.27 in 10.0 mi Calm Calm - N/A   Overcast
9:15 PM 59.0 °F 55.4 °F 88% 30.28 in 10.0 mi Calm Calm - N/A   Overcast
9:35 PM 59.0 °F 55.4 °F 88% 30.28 in 10.0 mi Calm Calm - N/A   Overcast
9:55 PM 59.0 °F 55.4 °F 88% 30.28 in 10.0 mi Calm Calm - N/A   Overcast
10:15 PM 59.0 °F 55.4 °F 88% 30.28 in 10.0 mi Calm Calm - N/A   Overcast
10:35 PM 59.0 °F 55.4 °F 88% 30.29 in 10.0 mi Calm Calm - N/A   Overcast
10:55 PM 57.2 °F 55.4 °F 94% 30.29 in 10.0 mi Calm Calm - N/A   Mostly Cloudy
11:15 PM 57.2 °F 55.4 °F 94% 30.29 in 10.0 mi Calm Calm - N/A   Mostly Cloudy
11:35 PM 55.4 °F 55.4 °F 100% 30.28 in 10.0 mi Calm Calm - N/A   Mostly Cloudy
11:55 PM 55.4 °F 55.4 °F 100% 30.28 in 7.0 mi Calm Calm - N/A   Clear